CAPE
2366 2508 2816 2528 2331 2828 2701 2754 2986 2172 2128 2207 2311 2229 2436 2410 2175 2370 2423 2549 2253 2835 2570 2700 3296 3194 3354 3150 3201 3198 3120 3171 3276 3606 3440 3248 3354 4162 4333 3691 3566 3525 3644 3485 3488 3448 2949 3220 3484 3489 3607 2950 2840 2755 2634 2485 2605 2658 3153 3445 3327 3321 3889 3247 2983 2833 3108 3633 3621 3364 3086 3185 3003 2774 2658 2695 2651 2543 2484 2414 2355 2317 2135 1805 1543
2121 2387 2411 2381 2274 2220 2641 2624 2611 1943 1754 1830 2174 1889 2221 2398 2194 2524 2632 2432 2371 2274 2615 2461 3062 3094 3026 3110 3049 3044 3164 3141 3072 3558 3201 3647 3441 3709 4221 4157 3936 3972 3896 4015 3923 3475 3404 3523 3299 3328 3713 3411 3017 2592 2328 2314 2187 1831 2559 3113 3265 4094 4755 4022 3334 3015 2853 2992 3055 3200 3300 3032 3004 2905 2787 2791 2834 2784 2600 2484 2514 2120 1408 1256 1296
2110 2130 2205 2097 2280 2140 2305 2363 2326 1983 1620 1951 2178 1924 2004 2196 2591 2174 2218 2577 1974 2386 2542 2236 2478 2770 2519 2724 2680 2864 3180 3191 3211 3070 3218 3363 3405 3284 3634 3733 3886 3826 3866 3423 3108 3575 3519 3367 3798 3741 3516 3258 3110 2886 2826 2432 2116 2044 1838 2079 2105 2086 2892 3253 3122 3386 3397 3122 3202 3136 3061 3107 3000 2804 2882 2948 2867 2818 2596 2146 1838 1602 1484 1464 1316
1902 1924 2043 1976 1955 1858 1960 2121 2008 1964 1911 1826 1994 1759 1747 2103 2389 2052 1970 1867 2365 2488 2337 2037 2446 2792 2471 3062 3089 2891 3175 3012 2906 3239 3172 3330 3461 3226 3301 3623 3860 3674 3455 3292 3083 2578 2692 2954 2904 2889 2947 2839 2599 2653 2556 2288 2068 1870 2365 2796 1862 2316 2417 2589 3861 3271 3500 2788 2775 3231 3260 3137 3176 3251 3072 2962 2925 2878 2656 2102 1872 1939 1870 1421 1290
1632 1728 1746 1612 1684 1764 1680 1947 1812 1909 1869 1834 1992 1634 1637 1796 1993 1883 1696 2099 1848 2133 1999 1978 2290 2483 2608 3006 2980 3018 3103 3263 2888 2570 3175 3533 3506 3403 3338 3174 2889 3218 3571 3493 4544 3593 3599 3446 3086 3112 3171 2886 2465 2508 2013 1722 1932 1899 1942 2987 2756 2603 2674 2936 3709 3563 2644 2575 2797 2975 3034 3210 3163 3210 3315 3106 2821 2526 2222 2056 2088 1834 1384 1148 1258
1493 1638 1608 1409 1118 1546 1392 1460 1585 1576 1580 1486 1544 1568 1504 1596 1709 1958 1798 1612 1572 1664 1534 1440 1826 2292 2474 2950 2703 3235 3263 3279 3161 2944 2731 2696 3078 3232 3264 3581 3183 3056 3313 3454 3456 3131 2878 3048 3222 2823 2488 2175 2425 2336 1884 1921 2812 3031 2732 2343 2293 3039 3944 3866 3638 3420 3258 3058 2975 2926 2919 3192 3263 3159 2678 2275 2016 1623 1381 1251 1175 1125 1166 1430 1494
1429 1631 1182 1850 1184 1002 1124 1104 1108 1314 1114 1248 1422 1631 1534 1418 1689 1698 1672 1449 1418 1303 1485 1440 2078 2643 2430 3107 3279 3369 3492 3651 3762 3799 3332 3081 3236 3225 2907 2915 3187 3174 3280 3176 3035 2879 2856 2739 2363 2572 2365 1926 1760 1731 2153 2579 2171 1798 1946 2311 2730 2818 2349 2300 2495 2677 3232 3456 3085 3233 3152 2622 2731 2139 1916 1840 2007 1914 1670 1647 1663 1384 1358 1958 1789
2067 1770 1435 1990 2076 2262 2239 1290 719 683 792 800 842 1357 1244 1169 1246 1443 1337 1090 1149 999 988 1529 2158 2899 3180 2632 3426 3383 3500 3925 4035 4235 4177 3846 3353 2806 2320 3288 3120 2973 2944 2835 2724 2651 2512 2205 2257 2272 2157 2053 1972 1850 2108 1921 2374 2341 2712 2687 2833 2858 2783 2608 2247 2142 2154 2236 2413 2544 2519 2414 2392 2277 2134 1960 1773 1187 1238 1905 1607 1665 1821 1795 1896
1828 2014 1981 1822 1665 1538 1422 1243 1357 1696 2162 1633 568 654 775 784 1077 1095 1104 798 802 1052 1319 1008 1192 1365 1932 2833 2915 2928 2968 3651 3278 3910 4053 3873 4143 3718 3441 2674 2301 2634 2668 2437 2279 2339 2175 2138 1957 1339 1002 3668 3392 4210 3468 2143 1792 1575 2040 1633 1843 1965 2531 2959 3195 3154 3109 3144 2949 2740 2689 2588 2219 1794 1344 1239 1185 1023 1469 1755 1600 1614 1737 1824 2012
1477 1825 1668 1598 1456 1336 1165 1080 1281 1482 1438 1386 1269 1533 1468 764 780 667 780 806 925 1393 1315 1175 1016 1418 1342 1579 2445 2275 2235 2736 2982 3020 2974 3302 3692 3520 3120 2632 2517 2655 2704 2722 2820 2460 2272 1835 1440 1702 1484 1428 3464 3964 3889 3993 3091 1745 1533 1824 2274 2616 3036 2813 2328 2158 2241 1959 1843 2195 2421 2005 1479 1179 1259 1510 1447 1386 1802 1827 1757 1806 1951 2178 2154
1316 1662 1482 1478 1426 1291 1198 1142 1336 1844 1671 1470 1495 1778 1662 1414 1174 868 1044 1191 1216 1380 1578 1487 1461 979 1319 1457 1538 1895 1924 1986 2170 2390 2487 2414 2381 3142 3502 2994 2504 2267 2311 2073 2153 2261 1990 1855 1453 2489 3318 3567 3369 3961 4076 4408 2798 1923 1779 2151 3008 2142 1772 1624 1658 2103 2285 2326 2228 1936 1761 1721 1815 1896 1833 1708 1492 1855 2222 2292 2249 2250 2276 2133 1940
1669 1599 1607 1452 1280 1190 1208 1110 1296 1764 2040 1948 1836 1956 1811 1662 1832 1364 1297 1355 1584 1668 1752 1783 1684 1190 643 705 1048 1186 1476 1644 1550 1384 1345 1395 1821 2420 2868 2664 2538 2432 2009 1929 2029 2329 2011 1904 1954 3017 3513 3411 2271 2162 3023 4433 3406 2158 2372 2638 2522 2441 2365 1915 1597 1791 2067 2207 2037 1827 2073 2085 1930 1588 1421 1692 2360 2595 2662 2312 2231 2173 1912 1768 1613
1972 1627 1681 1738 1490 1207 1163 1239 1088 1132 1528 1971 1812 1816 1853 1751 1510 1476 1336 1209 1422 1690 1674 1705 1539 1264 755 584 572 606 658 759 891 813 833 948 1170 1739 2232 2075 1446 1217 1228 1331 1274 1422 1760 1845 1763 1939 1268 1972 1458 1732 2236 2767 3786 4293 3310 3160 3063 2982 2778 2492 2363 2402 2630 2787 2821 2797 2526 2089 1782 1675 2228 2998 2910 2550 2303 1653 1575 1702 1758 1733 1697
2034 2200 1880 1803 1728 1317 1346 1536 1356 1160 1535 1767 1769 1753 1787 1632 1451 1218 1310 1469 1510 1625 1619 1175 1219 1219 967 801 712 636 641 730 808 873 926 976 1134 1306 1626 1897 1668 1235 1485 1809 1996 2147 1857 1642 1854 1404 1234 1162 1357 1613 1773 1986 2702 3173 3221 2965 2857 3002 3326 3199 2948 2868 2879 3158 3222 3018 2616 2199 2032 1924 2082 2615 2021 1706 1610 1672 1847 1849 1806 1783 1795
1727 1678 2028 2072 2012 1730 1760 1768 1553 1463 1478 1557 1705 1906 1858 1798 1631 1586 1332 1211 1214 1450 1454 1219 1137 1379 892 848 782 802 771 756 770 849 922 969 1052 1602 1831 2009 1620 1296 2046 2158 2294 2284 2356 2109 1414 1072 1128 1131 1162 1301 1534 1780 1878 2180 2504 2655 2576 2602 2428 2203 1980 2594 2635 2348 2226 2096 1917 1850 1894 1833 1664 1720 1743 1705 1840 1846 1795 1770 1778 1897 1920
1391 1434 1778 1862 1858 1741 1830 1819 1689 1411 1172 1319 1423 1477 1438 1434 1411 1373 1383 1265 1104 1115 1191 1181 1158 1113 1057 1019 984 898 817 839 888 831 843 916 976 1496 1988 2218 2326 2099 2091 2039 1862 1662 1622 1576 1303 1185 1185 1239 1277 1336 1416 1452 1504 1718 1646 1676 1693 1629 1618 1656 1696 1795 1827 1732 1716 1655 1626 1745 1677 1665 1787 1686 1514 1442 1565 1648 1665 1689 1567 1578 1570
1484 1325 1450 1437 1332 1322 1313 1362 1216 1494 1402 1257 1094 1118 1110 1133 1153 1126 1186 1244 1296 1170 1064 1013 933 911 956 1060 1126 1144 1040 928 863 972 1071 1033 1064 1231 1778 2165 2378 2070 2009 1881 1746 1548 1352 1147 1056 1052 1068 1171 1191 1205 1246 1299 1333 1346 1308 1266 1322 1406 1487 1509 1625 1691 1736 1708 1618 1460 1277 1282 1269 1223 1362 1404 1296 1206 1186 1196 1226 1163 1188 1194 1167
1356 1241 1258 1291 1208 1133 1092 1142 1066 917 1228 1219 1130 1050 989 948 875 828 862 955 944 979 950 937 876 855 880 895 901 948 996 1009 977 928 1020 1181 1238 1289 1722 1922 1770 1718 1747 1663 1469 1304 1190 1125 995 960 977 1015 1030 1050 1070 1090 1099 1127 1077 975 886 1202 1297 1326 1342 1310 1245 1234 1171 991 1282 843 851 1126 1256 1099 1118 1082 1063 1079 850 810 768 820 742
566 998 1171 1080 1105 1082 970 942 774 563 491 577 571 602 620 560 467 425 493 572 664 724 758 735 717 696 678 695 699 714 753 786 817 871 898 982 1065 1172 1211 1409 1453 1363 1432 1387 1223 1120 1010 915 838 828 815 749 723 761 822 898 921 869 792 672 640 706 670 596 577 510 472 599 798 1067 850 922 954 958 1050 916 824 888 662 660 616 747 631 721 929
471 346 257 539 641 670 685 305 297 263 298 364 341 371 336 295 295 290 300 326 389 426 428 424 442 470 498 501 508 496 539 555 542 513 598 695 803 863 890 980 983 958 1018 1064 1031 901 769 742 737 729 749 738 693 647 632 640 640 584 522 438 365 330 276 260 258 448 468 421 817 769 572 607 611 490 510 496 470 354 228 382 595 806 913 882 1192
264 199 131 132 149 181 220 317 373 391 409 352 331 322 305 304 289 271 302 314 314 325 329 314 286 288 269 288 317 331 358 398 371 344 399 477 562 636 683 677 714 761 780 727 742 806 755 664 632 599 585 576 558 528 493 466 426 375 305 266 238 193 167 176 359 327 163 494 488 660 286 374 362 369 709 382 310 276 409 231 177 222 440 954 1244
251 218 197 34 107 177 235 246 246 293 301 261 275 272 288 335 309 306 308 308 294 243 210 146 103 0 17 121 146 178 235 266 290 313 368 371 397 435 490 522 500 492 492 500 504 498 484 497 499 501 483 479 442 377 292 234 237 232 216 125 99 87 69 215 264 134 193 46 31 18 14 11 0 0 0 0 0 0 0 0 0 4 132 241 24
257 219 118 0 95 185 205 231 261 212 177 116 118 89 150 183 189 214 246 229 170 136 124 82 56 48 102 126 159 192 214 188 201 241 280 334 392 420 434 431 422 406 381 371 358 338 310 284 232 219 229 252 261 238 222 200 150 104 30 0 0 0 0 143 4 34 0 0 0 0 0 0 0 0 0 0 0 0 0 0 0 0 0 0 0
173 166 96 3 0 0 0 8 54 58 88 42 86 89 103 89 52 33 31 30 20 12 18 21 33 35 15 0 0 0 0 0 0 43 144 210 228 214 193 177 187 155 136 112 124 107 69 47 40 35 31 34 38 33 38 40 42 36 0 0 0 0 2 4 0 0 0 0 0 0 0 0 0 0 0 0 0 0 0 0 0 0 0 0 0
0 1 2 10 11 0 2 1 0 0 17 46 45 43 42 57 20 27 63 68 23 10 5 32 29 27 3 0 0 0 0 0 0 0 0 0 0 3 0 2 9 4 0 0 0 0 0 0 0 0 0 0 0 0 0 0 2 0 0 0 0 0 0 0 0 0 0 0 0 0 0 0 0 0 0 0 0 0 0 0 0 0 0 0 0
0 0 1 0 0 22 31 35 36 17 14 16 14 3 1 44 16 7 8 1 16 12 33 70 79 73 80 37 8 0 3 0 0 0 0 0 0 0 0 0 0 0 0 0 0 0 0 0 0 0 0 0 0 0 0 0 0 0 0 0 0 0 0 0 0 0 0 0 0 0 0 0 0 0 0 0 0 0 0 0 0 0 0 0 0
13 2 0 0 0 0 0 0 0 0 0 0 0 23 5 2 8 24 2 0 0 31 6 8 3 19 28 29 69 3 0 0 0 0 0 0 0 0 0 0 0 0 0 0 0 0 0 0 0 0 0 0 0 0 0 0 0 0 0 0 0 0 0 0 0 0 0 0 0 0 0 0 0 0 0 0 0 0 0 0 0 0 0 0 0
0 0 0 2 1 0 0 0 0 0 0 0 0 0 0 0 0 0 0 0 0 0 0 0 0 0 0 0 9 0 0 0 0 0 0 0 0 0 0 0 0 0 0 0 0 0 0 0 0 1 29 0 0 0 0 0 0 0 0 0 0 0 0 0 0 0 0 0 0 0 0 0 0 0 0 0 0 0 0 0 0 0 0 0 0
0 0 0 0 0 0 0 0 0 0 0 0 0 0 0 0 0 0 0 0 0 0 0 0 0 0 0 0 0 0 0 0 0 0 0 0 0 0 0 0 0 0 0 0 0 0 0 0 0 0 0 0 0 0 0 0 0 0 0 0 0 0 0 0 0 0 0 0 0 0 0 0 0 0 0 0 0 0 0 0 0 0 0 0 0
0 0 0 0 0 0 0 0 0 0 0 0 0 0 0 0 0 0 0 0 0 0 0 0 0 0 0 0 0 0 0 0 0 0 0 0 0 0 0 0 0 0 0 0 0 0 0 0 0 0 0 0 0 0 0 0 0 0 0 0 0 0 0 0 0 0 0 0 0 0 0 0 0 0 0 0 0 0 0 0 0 0 0 0 0
0 0 0 0 18 71 0 0 0 0 0 0 0 0 0 0 0 0 0 0 0 0 0 0 0 0 0 0 0 0 0 0 0 0 0 0 0 0 0 0 0 0 0 0 0 0 0 0 0 0 0 0 0 0 0 0 0 0 0 0 0 0 0 0 0 0 0 0 0 0 0 0 0 0 0 0 0 0 0 0 0 0 0 0 0
81 0 1 18 20 15 0 0 1 0 0 0 0 0 0 0 0 0 0 0 0 0 0 0 0 0 0 0 0 0 0 0 0 0 0 0 0 0 0 0 0 0 0 0 0 0 0 0 0 0 0 0 0 0 0 0 0 0 0 0 0 0 0 0 0 0 0 0 0 0 0 0 0 0 0 0 0 0 0 0 0 0 0 0 0
0 0 0 7 36 57 13 10 102 0 0 0 0 0 0 0 0 0 0 0 0 0 0 0 0 0 0 0 0 0 0 0 0 0 0 0 0 0 0 0 0 0 0 0 0 0 0 0 0 0 0 0 0 0 0 0 0 0 0 0 0 0 0 0 0 0 0 0 0 0 0 0 0 0 0 0 0 0 0 0 0 0 0 0 0
0 0 0 0 0 13 4 0 0 0 0 0 0 0 2 0 0 0 0 0 0 0 0 0 0 0 0 0 0 0 0 0 0 0 0 0 0 0 0 0 0 0 0 0 0 0 0 0 0 0 0 0 0 0 0 0 0 0 0 0 0 0 0 0 0 0 0 0 0 0 0 0 0 0 0 0 0 0 0 0 0 0 0 0 0
13 22 6 74 0 0 0 0 3 0 9 14 33 0 112 40 23 0 0 0 0 0 0 0 0 0 0 0 0 0 0 0 0 0 0 0 0 0 0 0 0 0 0 0 0 0 0 0 1 3 0 0 0 1 0 0 0 0 0 0 0 0 0 0 0 0 0 0 0 0 0 0 0 0 0 0 0 0 0 0 0 0 0 0 0
0 0 0 7 8 0 2 0 0 0 0 0 0 0 0 0 64 13 1 1 0 0 0 0 0 0 0 0 0 0 0 0 0 0 0 0 0 0 0 0 0 0 0 0 0 0 0 2 9 1 0 0 0 0 0 0 0 0 0 0 0 0 0 0 0 0 0 0 0 0 0 0 0 0 0 0 0 0 0 0 0 0 0 0 0
0 0 0 0 107 1 0 0 0 0 0 0 0 0 0 0 0 0 0 18 43 1 0 0 0 0 0 0 0 0 0 0 0 0 0 0 0 0 0 0 0 0 0 0 0 0 0 0 0 0 0 0 0 0 0 0 0 0 0 0 0 0 0 0 0 0 0 0 0 0 0 0 0 0 0 0 0 0 0 0 0 0 0 0 0
0 0 0 0 0 0 0 0 0 0 0 0 0 0 0 0 0 0 0 0 1 12 0 0 0 0 0 0 0 0 0 0 0 0 0 0 0 0 0 0 0 0 0 0 0 0 0 0 0 0 0 0 0 0 0 0 0 0 0 0 0 0 0 0 0 0 0 0 0 0 0 0 0 0 0 0 0 0 0 0 0 0 0 0 0
0 0 0 0 0 0 0 0 0 0 0 0 0 0 0 0 0 0 0 0 0 0 0 0 0 0 0 0 0 0 0 0 0 0 0 0 0 0 0 0 0 0 16 0 0 0 0 0 0 0 0 0 0 0 0 0 0 0 0 0 0 0 0 0 0 0 0 0 0 0 0 0 0 0 0 0 0 0 0 0 0 0 0 0 0
0 0 0 0 0 0 0 0 0 0 0 0 0 0 0 0 0 0 0 0 0 0 0 0 0 0 0 0 0 0 0 0 0 0 0 0 0 0 0 0 0 0 0 0 0 0 0 0 0 0 0 0 0 0 0 0 0 0 0 0 0 0 0 0 0 0 0 0 0 0 0 0 0 0 0 0 0 0 0 0 0 0 0 0 0
0 0 0 0 0 0 0 0 0 0 0 0 0 63 0 0 0 0 0 0 0 1 4 0 0 0 0 0 0 0 0 0 0 0 0 0 0 0 0 0 0 0 0 0 0 0 0 0 0 0 0 0 0 0 0 0 0 0 0 0 0 0 0 0 0 0 0 0 0 0 0 0 0 0 0 0 0 0 0 0 0 0 0 0 0
0 0 0 0 0 0 0 0 0 0 0 0 0 0 0 0 0 0 0 0 0 0 0 0 0 0 0 0 0 0 0 0 0 0 0 0 0 0 0 0 0 0 0 0 0 0 0 0 0 0 0 0 0 0 0 0 0 0 0 0 0 0 0 0 0 0 0 0 0 0 0 0 0 0 0 0 0 0 0 0 0 0 0 0 0
0 0 0 0 0 0 0 0 0 0 0 0 0 0 0 0 0 0 0 0 0 0 0 0 0 0 0 0 0 0 0 0 0 0 0 0 0 0 0 0 0 0 0 0 0 0 0 0 0 0 0 0 0 0 0 0 0 0 0 0 0 0 0 0 0 0 0 0 0 0 0 0 0 0 0 0 0 0 0 0 0 0 0 0 0
0 0 0 0 0 0 0 0 0 0 0 0 0 0 0 0 0 0 0 0 0 0 0 0 0 0 0 0 0 0 0 0 0 0 0 0 0 0 0 0 0 0 0 0 0 0 0 0 0 0 0 0 0 0 0 0 0 0 0 0 0 0 0 0 0 0 0 0 0 0 0 0 0 0 0 0 0 0 0 0 0 0 0 0 0
0 0 0 0 0 0 0 0 0 0 0 0 0 0 0 0 0 0 0 0 0 0 0 0 0 0 0 0 0 0 0 0 0 0 0 0 0 0 0 0 0 0 0 0 0 0 0 0 0 0 0 0 0 0 0 0 0 0 0 0 0 0 0 0 0 0 0 0 0 0 0 0 0 0 0 0 0 0 0 0 0 0 1 2 3
0 0 0 0 0 0 0 0 0 0 0 0 0 0 0 0 0 0 0 0 0 0 0 0 0 0 0 0 0 0 0 0 0 0 0 0 0 0 0 0 0 0 0 0 0 0 0 0 0 0 0 0 0 0 0 0 0 0 0 0 0 0 0 0 0 0 2 2 0 0 1 0 0 0 0 0 0 0 0 0 1 3 3 5 4
0 0 0 0 0 0 0 1 0 0 0 0 0 0 0 0 0 0 0 0 0 0 0 0 0 0 0 0 0 0 0 0 0 0 0 0 0 0 0 0 0 0 0 0 0 0 0 0 0 0 0 0 0 0 0 0 0 0 1 1 0 0 0 0 1 4 4 5 4 2 2 0 0 0 0 0 0 0 3 4 0 0 0 0 0
0 0 0 0 0 0 0 0 0 0 0 0 0 0 0 0 0 0 0 0 0 0 0 0 0 0 0 0 0 0 0 0 0 0 0 0 0 0 0 0 0 0 0 0 0 0 0 0 0 0 0 1 2 2 2 1 1 2 3 3 2 2 2 2 2 2 2 2 2 1 0 0 0 0 0 0 0 2 3 0 0 0 0 1 2
0 0 0 0 0 0 0 0 0 0 0 0 0 0 0 0 0 0 0 0 0 0 0 0 0 0 0 0 0 0 0 0 0 0 0 0 0 0 0 0 0 0 0 0 0 0 0 0 0 0 0 1 1 2 1 1 0 0 0 1 2 2 2 1 2 6 6 1 0 0 0 0 0 0 0 0 1 3 1 1 1 1 1 2 2
0 0 0 0 0 0 0 0 0 0 0 0 0 0 0 0 0 0 0 0 0 0 0 0 0 0 0 0 0 0 0 0 0 0 0 0 0 0 0 0 0 0 0 0 0 0 0 0 5 2 2 2 2 2 2 2 2 2 5 5 4 4 6 6 4 1 0 0 0 0 0 0 0 0 0 0 4 1 1 1 2 2 2 2 2
0 29 0 0 0 0 0 0 0 0 0 0 0 4 1 0 0 0 0 0 0 0 0 0 0 0 0 0 0 0 0 0 0 0 0 0 0 0 0 0 0 0 0 1 1 1 2 1 1 1 1 1 1 2 2 1 3 7 6 4 5 5 3 2 0 0 0 0 0 0 0 0 0 0 0 2 2 2 1 2 3 4 2 1 3
Wind_Speed
9 8 8 7 7 5 6 6 8 9 10 9 8 9 9 11 10 12 12 11 11 11 10 10 9 8 7 7 6 6 5 3 3 4 4 2 1 1 1 4 3 3 3 6 6 5 5 5 4 5 5 6 5 5 3 1 1 1 4 7 7 6 8 8 7 5 4 7 7 5 3 3 4 4 4 3 3 3 3 3 3 3 3 3 4
11 11 9 10 9 6 7 7 9 9 10 9 10 8 9 9 9 9 10 9 9 8 8 7 7 5 5 5 4 4 4 3 3 5 4 4 1 2 3 3 4 1 1 2 3 4 2 2 2 3 4 3 3 3 3 5 3 2 3 7 6 7 8 10 7 7 4 6 5 4 4 4 3 5 3 2 2 3 2 2 1 2 3 2 2
13 13 12 12 10 9 10 10 10 10 9 10 9 9 9 9 11 9 8 9 7 7 7 6 7 5 5 5 4 5 5 4 4 5 5 5 4 3 4 6 6 5 3 2 1 0 1 2 1 0 1 0 1 1 1 2 2 3 3 4 5 4 6 8 8 6 5 4 5 5 4 3 3 1 1 2 3 4 3 2 2 2 2 3 3
15 13 14 13 12 12 12 12 11 11 10 10 9 8 11 11 12 10 9 9 8 8 8 7 8 8 6 9 8 7 6 5 5 6 6 6 7 6 7 9 8 7 7 6 5 3 2 2 1 1 1 2 2 3 3 2 0 1 1 4 6 4 4 6 7 8 7 5 4 4 3 2 1 2 2 2 3 3 3 3 2 3 4 3 3
17 16 15 13 14 14 14 14 14 13 14 14 10 11 13 13 12 10 10 13 11 12 14 10 9 9 8 8 9 9 8 8 7 7 7 7 8 8 8 8 9 9 9 8 7 7 6 5 4 3 2 2 1 1 1 0 0 1 2 3 4 3 2 3 5 6 5 3 3 3 2 2 2 4 4 4 4 2 1 2 3 3 2 2 2
19 18 19 17 17 17 15 16 15 14 13 14 13 14 16 14 13 11 14 12 15 16 14 15 12 8 10 11 10 11 10 9 9 8 7 8 7 8 8 8 8 8 8 8 7 8 8 7 8 7 6 6 4 4 4 3 4 4 3 2 3 4 3 3 4 4 4 3 3 1 1 2 1 3 4 3 3 3 4 3 1 1 3 2 2
20 21 20 21 19 19 17 17 16 15 14 14 14 15 16 16 16 13 13 15 17 19 17 14 12 8 11 12 13 12 12 11 11 9 8 10 10 11 9 7 8 9 8 8 8 9 9 9 9 10 9 8 7 7 8 7 6 5 6 7 6 6 5 5 4 4 4 4 3 5 3 3 4 2 4 3 3 2 2 3 3 4 6 7 6
23 22 22 23 23 23 23 21 18 18 16 15 18 17 17 18 17 17 20 21 14 17 14 13 13 17 15 13 14 14 14 13 12 10 10 10 12 12 7 11 12 12 11 9 8 7 9 9 10 11 11 10 10 11 11 10 11 11 11 13 13 13 11 9 9 8 7 6 5 3 4 3 1 2 2 4 5 6 7 8 6 5 6 9 10
24 25 28 28 27 27 27 27 28 29 28 25 24 25 23 20 19 19 23 23 17 18 17 17 13 17 14 16 17 16 14 14 14 13 12 10 12 12 12 12 12 12 11 10 9 8 9 8 10 10 10 10 8 10 10 11 12 11 11 14 14 14 13 13 12 11 9 8 6 7 7 5 4 4 5 5 6 5 6 9 9 9 9 10 10
22 21 26 26 27 27 28 28 29 30 29 27 28 29 29 29 29 28 27 25 25 26 21 18 17 18 16 16 17 18 18 19 20 21 16 14 13 13 15 16 15 14 13 12 11 9 11 11 14 9 6 8 10 8 3 8 13 13 14 16 16 15 14 13 11 11 11 10 9 10 10 9 7 7 7 7 7 9 10 12 12 11 13 14 14
19 18 23 25 26 27 26 27 30 31 28 27 29 30 30 29 29 28 28 29 28 28 28 29 26 25 23 22 25 23 22 21 24 24 25 20 17 17 17 18 16 15 15 15 12 9 12 10 17 17 19 19 16 18 20 15 11 13 15 13 15 15 13 11 11 12 13 13 14 14 13 11 10 11 10 9 10 12 12 13 13 16 17 18 17
23 21 24 25 26 28 27 26 29 29 29 30 31 30 31 31 31 31 32 32 30 30 31 29 27 27 28 28 26 25 24 24 26 27 27 26 24 21 21 20 18 18 17 16 15 15 17 17 19 20 21 20 19 18 17 18 17 15 16 16 17 17 16 15 13 12 12 11 12 14 15 14 13 14 12 12 13 14 14 15 15 16 16 16 16
21 25 29 29 29 29 29 31 31 31 31 31 31 34 33 33 33 33 34 31 32 34 31 30 29 28 28 28 27 25 25 25 26 28 28 28 27 24 23 23 23 24 24 25 25 24 23 23 22 23 22 25 23 19 19 18 18 19 18 16 15 16 16 15 16 15 14 15 15 14 15 15 15 16 18 16 16 15 15 15 14 14 14 13 13
21 27 32 32 31 30 30 33 33 32 33 35 34 35 35 35 35 34 33 33 34 34 33 33 31 29 28 28 27 27 27 25 26 27 29 29 28 25 23 23 25 28 29 27 27 27 26 26 26 26 25 26 24 22 21 22 21 20 19 18 18 18 17 14 13 13 16 17 17 17 16 18 15 16 15 18 19 17 16 15 15 13 13 13 14
24 31 35 34 33 32 32 35 36 36 37 37 36 35 35 35 35 34 34 34 34 33 33 33 31 29 29 28 29 30 28 28 28 29 29 29 27 25 24 24 26 28 30 29 29 29 27 28 29 29 28 28 26 25 25 23 23 23 24 22 21 21 21 20 21 23 24 22 20 19 17 18 17 17 20 22 22 21 20 19 17 16 15 17 18
29 33 36 36 36 36 35 36 38 39 39 38 37 37 36 35 36 35 35 36 36 36 36 35 35 34 31 31 32 33 30 33 31 31 30 30 28 28 28 28 29 32 30 31 31 30 31 31 31 31 30 29 28 27 28 25 25 26 26 25 24 26 25 30 32 31 28 24 23 22 21 21 25 21 20 24 24 24 23 23 24 23 22 22 22
23 27 31 35 38 39 39 39 40 42 40 40 40 40 39 39 38 37 39 40 41 40 38 37 36 36 35 34 34 33 32 33 33 33 33 31 29 30 29 30 32 31 30 30 31 31 33 33 32 31 31 30 30 30 30 29 29 28 28 27 27 26 29 29 27 29 27 26 23 23 24 32 30 23 24 24 26 25 26 30 30 27 27 26 24
19 21 24 28 33 37 40 40 42 42 42 43 43 42 42 41 41 40 41 42 43 41 40 40 39 37 36 34 34 35 33 34 36 35 36 35 31 30 31 33 32 31 31 31 32 33 35 40 35 32 31 30 30 31 31 30 31 30 29 29 28 29 31 29 29 28 26 26 25 26 30 34 30 25 28 34 35 32 32 34 30 31 28 26 25
26 26 24 23 24 27 30 33 36 38 40 45 45 44 42 42 43 43 42 41 40 40 41 41 39 38 39 38 40 38 35 36 38 38 39 39 37 36 35 35 36 34 34 33 34 35 36 39 40 36 33 32 32 33 34 33 31 30 29 29 31 33 33 30 30 30 30 29 29 32 32 32 30 28 31 35 35 35 34 31 29 30 28 26 25
31 32 32 29 27 25 24 28 28 28 30 36 41 43 42 44 46 46 45 43 42 41 43 42 38 37 41 40 37 37 38 37 38 40 42 42 40 38 37 38 36 34 33 33 34 36 38 39 38 37 36 36 36 36 35 34 33 31 31 33 34 33 34 33 32 33 32 30 32 34 32 32 29 32 32 34 34 33 32 30 29 29 28 26 25
32 34 35 36 35 32 30 31 32 31 28 28 29 32 37 42 44 45 47 48 47 46 45 42 40 41 44 42 40 38 39 40 39 41 43 44 43 40 40 40 36 34 36 36 37 38 39 39 37 37 37 38 37 35 34 33 33 33 34 35 36 34 35 37 35 35 34 34 35 36 35 34 32 33 34 34 34 34 33 33 32 33 33 31 30
33 34 37 nan 37 37 37 36 37 36 36 34 30 28 27 28 28 30 35 41 46 47 45 45 44 nan nan 41 42 40 41 42 40 41 43 45 47 46 43 41 38 38 41 40 39 37 36 37 36 36 37 36 36 35 33 33 33 35 35 34 nan nan nan 34 35 37 38 nan nan nan nan nan nan nan nan nan nan nan nan nan nan nan 38 39 nan
32 32 33 nan nan 34 34 36 35 34 35 35 35 nan 28 26 24 23 26 29 32 36 39 nan nan nan 43 43 42 40 39 39 40 40 42 46 47 48 47 45 43 41 40 41 40 38 35 35 35 38 37 36 35 34 33 32 34 34 nan nan nan nan nan 33 nan nan nan nan nan nan nan nan nan nan nan nan nan nan nan nan nan nan nan nan nan
31 31 nan nan nan nan nan nan nan nan nan nan nan nan 30 nan nan nan nan nan nan nan nan nan nan nan nan nan nan nan nan nan nan nan 45 50 49 49 49 50 48 43 43 42 41 41 nan nan nan nan nan nan nan nan nan nan nan nan nan nan nan nan nan nan nan nan nan nan nan nan nan nan nan nan nan nan nan nan nan nan nan nan nan nan nan
nan nan nan nan nan nan nan nan nan nan nan nan nan nan nan nan nan nan nan nan nan nan nan nan nan nan nan nan nan nan nan nan nan nan nan nan nan nan nan nan nan nan nan nan nan nan nan nan nan nan nan nan nan nan nan nan nan nan nan nan nan nan nan nan nan nan nan nan nan nan nan nan nan nan nan nan nan nan nan nan nan nan nan nan nan
nan nan nan nan nan nan nan nan nan nan nan nan nan nan nan nan nan nan nan nan nan nan nan nan nan nan nan nan nan nan nan nan nan nan nan nan nan nan nan nan nan nan nan nan nan nan nan nan nan nan nan nan nan nan nan nan nan nan nan nan nan nan nan nan nan nan nan nan nan nan nan nan nan nan nan nan nan nan nan nan nan nan nan nan nan
nan nan nan nan nan nan nan nan nan nan nan nan nan nan nan nan nan nan nan nan nan nan nan nan nan nan nan nan nan nan nan nan nan nan nan nan nan nan nan nan nan nan nan nan nan nan nan nan nan nan nan nan nan nan nan nan nan nan nan nan nan nan nan nan nan nan nan nan nan nan nan nan nan nan nan nan nan nan nan nan nan nan nan nan nan
nan nan nan nan nan nan nan nan nan nan nan nan nan nan nan nan nan nan nan nan nan nan nan nan nan nan nan nan nan nan nan nan nan nan nan nan nan nan nan nan nan nan nan nan nan nan nan nan nan nan nan nan nan nan nan nan nan nan nan nan nan nan nan nan nan nan nan nan nan nan nan nan nan nan nan nan nan nan nan nan nan nan nan nan nan
nan nan nan nan nan nan nan nan nan nan nan nan nan nan nan nan nan nan nan nan nan nan nan nan nan nan nan nan nan nan nan nan nan nan nan nan nan nan nan nan nan nan nan nan nan nan nan nan nan nan nan nan nan nan nan nan nan nan nan nan nan nan nan nan nan nan nan nan nan nan nan nan nan nan nan nan nan nan nan nan nan nan nan nan nan
nan nan nan nan nan nan nan nan nan nan nan nan nan nan nan nan nan nan nan nan nan nan nan nan nan nan nan nan nan nan nan nan nan nan nan nan nan nan nan nan nan nan nan nan nan nan nan nan nan nan nan nan nan nan nan nan nan nan nan nan nan nan nan nan nan nan nan nan nan nan nan nan nan nan nan nan nan nan nan nan nan nan nan nan nan
nan nan nan nan nan nan nan nan nan nan nan nan nan nan nan nan nan nan nan nan nan nan nan nan nan nan nan nan nan nan nan nan nan nan nan nan nan nan nan nan nan nan nan nan nan nan nan nan nan nan nan nan nan nan nan nan nan nan nan nan nan nan nan nan nan nan nan nan nan nan nan nan nan nan nan nan nan nan nan nan nan nan nan nan nan
nan nan nan nan nan nan nan nan nan nan nan nan nan nan nan nan nan nan nan nan nan nan nan nan nan nan nan nan nan nan nan nan nan nan nan nan nan nan nan nan nan nan nan nan nan nan nan nan nan nan nan nan nan nan nan nan nan nan nan nan nan nan nan nan nan nan nan nan nan nan nan nan nan nan nan nan nan nan nan nan nan nan nan nan nan
nan nan nan nan nan nan nan nan 40 nan nan nan nan nan nan nan nan nan nan nan nan nan nan nan nan nan nan nan nan nan nan nan nan nan nan nan nan nan nan nan nan nan nan nan nan nan nan nan nan nan nan nan nan nan nan nan nan nan nan nan nan nan nan nan nan nan nan nan nan nan nan nan nan nan nan nan nan nan nan nan nan nan nan nan nan
nan nan nan nan nan nan nan nan nan nan nan nan nan nan nan nan nan nan nan nan nan nan nan nan nan nan nan nan nan nan nan nan nan nan nan nan nan nan nan nan nan nan nan nan nan nan nan nan nan nan nan nan nan nan nan nan nan nan nan nan nan nan nan nan nan nan nan nan nan nan nan nan nan nan nan nan nan nan nan nan nan nan nan nan nan
nan nan nan nan nan nan nan nan nan nan nan nan nan nan 41 nan nan nan nan nan nan nan nan nan nan nan nan nan nan nan nan nan nan nan nan nan nan nan nan nan nan nan nan nan nan nan nan nan nan nan nan nan nan nan nan nan nan nan nan nan nan nan nan nan nan nan nan nan nan nan nan nan nan nan nan nan nan nan nan nan nan nan nan nan nan
nan nan nan nan nan nan nan nan nan nan nan nan nan nan nan nan nan nan nan nan nan nan nan nan nan nan nan nan nan nan nan nan nan nan nan nan nan nan nan nan nan nan nan nan nan nan nan nan nan nan nan nan nan nan nan nan nan nan nan nan nan nan nan nan nan nan nan nan nan nan nan nan nan nan nan nan nan nan nan nan nan nan nan nan nan
nan nan nan nan 47 nan nan nan nan nan nan nan nan nan nan nan nan nan nan nan nan nan nan nan nan nan nan nan nan nan nan nan nan nan nan nan nan nan nan nan nan nan nan nan nan nan nan nan nan nan nan nan nan nan nan nan nan nan nan nan nan nan nan nan nan nan nan nan nan nan nan nan nan nan nan nan nan nan nan nan nan nan nan nan nan
nan nan nan nan nan nan nan nan nan nan nan nan nan nan nan nan nan nan nan nan nan nan nan nan nan nan nan nan nan nan nan nan nan nan nan nan nan nan nan nan nan nan nan nan nan nan nan nan nan nan nan nan nan nan nan nan nan nan nan nan nan nan nan nan nan nan nan nan nan nan nan nan nan nan nan nan nan nan nan nan nan nan nan nan nan
nan nan nan nan nan nan nan nan nan nan nan nan nan nan nan nan nan nan nan nan nan nan nan nan nan nan nan nan nan nan nan nan nan nan nan nan nan nan nan nan nan nan nan nan nan nan nan nan nan nan nan nan nan nan nan nan nan nan nan nan nan nan nan nan nan nan nan nan nan nan nan nan nan nan nan nan nan nan nan nan nan nan nan nan nan
nan nan nan nan nan nan nan nan nan nan nan nan nan nan nan nan nan nan nan nan nan nan nan nan nan nan nan nan nan nan nan nan nan nan nan nan nan nan nan nan nan nan nan nan nan nan nan nan nan nan nan nan nan nan nan nan nan nan nan nan nan nan nan nan nan nan nan nan nan nan nan nan nan nan nan nan nan nan nan nan nan nan nan nan nan
nan nan nan nan nan nan nan nan nan nan nan nan nan nan nan nan nan nan nan nan nan nan nan nan nan nan nan nan nan nan nan nan nan nan nan nan nan nan nan nan nan nan nan nan nan nan nan nan nan nan nan nan nan nan nan nan nan nan nan nan nan nan nan nan nan nan nan nan nan nan nan nan nan nan nan nan nan nan nan nan nan nan nan nan nan
nan nan nan nan nan nan nan nan nan nan nan nan nan nan nan nan nan nan nan nan nan nan nan nan nan nan nan nan nan nan nan nan nan nan nan nan nan nan nan nan nan nan nan nan nan nan nan nan nan nan nan nan nan nan nan nan nan nan nan nan nan nan nan nan nan nan nan nan nan nan nan nan nan nan nan nan nan nan nan nan nan nan nan nan nan
nan nan nan nan nan nan nan nan nan nan nan nan nan nan nan nan nan nan nan nan nan nan nan nan nan nan nan nan nan nan nan nan nan nan nan nan nan nan nan nan nan nan nan nan nan nan nan nan nan nan nan nan nan nan nan nan nan nan nan nan nan nan nan nan nan nan nan nan nan nan nan nan nan nan nan nan nan nan nan nan nan nan nan nan nan
nan nan nan nan nan nan nan nan nan nan nan nan nan nan nan nan nan nan nan nan nan nan nan nan nan nan nan nan nan nan nan nan nan nan nan nan nan nan nan nan nan nan nan nan nan nan nan nan nan nan nan nan nan nan nan nan nan nan nan nan nan nan nan nan nan nan nan nan nan nan nan nan nan nan nan nan nan nan nan nan nan nan nan nan nan
nan nan nan nan nan nan nan nan nan nan nan nan nan nan nan nan nan nan nan nan nan nan nan nan nan nan nan nan nan nan nan nan nan nan nan nan nan nan nan nan nan nan nan nan nan nan nan nan nan nan nan nan nan nan nan nan nan nan nan nan nan nan nan nan nan nan nan nan nan nan nan nan nan nan nan nan nan nan nan nan nan nan nan nan nan
nan nan nan nan nan nan nan nan nan nan nan nan nan nan nan nan nan nan nan nan nan nan nan nan nan nan nan nan nan nan nan nan nan nan nan nan nan nan nan nan nan nan nan nan nan nan nan nan nan nan nan nan nan nan nan nan nan nan nan nan nan nan nan nan nan nan nan nan nan nan nan nan nan nan nan nan nan nan nan nan nan nan nan nan nan
nan nan nan nan nan nan nan nan nan nan nan nan nan nan nan nan nan nan nan nan nan nan nan nan nan nan nan nan nan nan nan nan nan nan nan nan nan nan nan nan nan nan nan nan nan nan nan nan nan nan nan nan nan nan nan nan nan nan nan nan nan nan nan nan nan nan nan nan nan nan nan nan nan nan nan nan nan nan nan nan nan nan nan nan nan
nan nan nan nan nan nan nan nan nan nan nan nan nan nan nan nan nan nan nan nan nan nan nan nan nan nan nan nan nan nan nan nan nan nan nan nan nan nan nan nan nan nan nan nan nan nan nan nan nan nan nan nan nan nan nan nan nan nan nan nan nan nan nan nan nan nan nan nan nan nan nan nan nan nan nan nan nan nan nan nan nan nan nan nan nan
nan nan nan nan nan nan nan nan nan nan nan nan nan nan nan nan nan nan nan nan nan nan nan nan nan nan nan nan nan nan nan nan nan nan nan nan nan nan nan nan nan nan nan nan nan nan nan nan nan nan nan nan nan nan nan nan nan nan nan nan nan nan nan nan nan nan nan nan nan nan nan nan nan nan nan nan nan nan nan nan nan nan nan nan nan
nan nan nan nan nan nan nan nan nan nan nan nan nan nan nan nan nan nan nan nan nan nan nan nan nan nan nan nan nan nan nan nan nan nan nan nan nan nan nan nan nan nan nan nan nan nan nan nan nan nan nan nan nan nan nan nan nan nan nan nan nan nan nan nan nan nan nan nan nan nan nan nan nan nan nan nan nan nan nan nan nan nan nan nan nan
nan nan nan nan nan nan nan nan nan nan nan nan nan nan nan nan nan nan nan nan nan nan nan nan nan nan nan nan nan nan nan nan nan nan nan nan nan nan nan nan nan nan nan nan nan nan nan nan nan nan nan nan nan nan nan nan nan nan nan nan nan nan nan nan nan nan nan nan nan nan nan nan nan nan nan nan nan nan nan nan nan nan nan nan nan
Wind_Direction
247 230 230 223 240 228 235 234 234 251 255 251 247 249 254 249 256 258 261 268 269 268 268 267 279 275 276 276 273 286 293 302 306 298 304 330 25 23 54 21 24 65 88 108 120 143 142 131 146 171 186 192 189 179 192 182 197 317 319 314 326 316 310 317 326 351 314 323 337 349 13 344 343 332 323 327 318 319 330 349 349 340 6 14 21
243 236 228 229 245 238 236 235 232 243 252 251 247 251 254 250 257 255 257 271 272 277 266 258 266 270 269 273 264 273 284 297 294 284 299 297 327 319 286 288 308 330 5 88 122 118 164 161 173 180 183 185 176 173 163 152 205 298 290 305 313 307 307 309 329 317 338 295 302 328 338 326 337 339 330 353 1 350 20 16 357 339 356 18 61
239 232 230 229 242 242 240 234 237 245 246 247 248 253 255 261 261 262 258 262 269 278 274 268 258 271 252 265 267 263 284 277 271 283 296 300 303 291 293 313 311 316 323 331 345 257 179 174 168 292 231 164 93 55 82 143 204 269 299 307 312 319 316 315 307 315 326 330 327 312 318 312 323 60 55 2 10 15 25 41 52 76 57 46 52
245 240 231 226 238 243 241 244 243 241 250 246 252 251 256 260 261 264 260 250 257 263 274 264 261 260 254 247 261 258 268 266 264 271 297 299 298 309 289 297 304 313 314 314 327 329 329 307 39 10 342 66 38 34 26 15 31 229 295 324 336 341 345 326 336 337 337 335 324 331 341 346 54 84 101 116 99 85 43 52 60 61 56 63 45
248 247 241 235 230 237 237 246 247 235 231 244 244 243 253 250 258 261 260 254 243 236 222 227 268 264 261 259 258 263 265 263 265 262 267 278 294 298 298 302 304 305 306 306 312 302 300 302 299 291 290 303 240 294 308 37 273 82 22 320 324 337 336 327 336 338 339 356 11 351 4 6 38 105 114 115 123 112 68 41 47 49 56 50 23
251 245 242 243 232 236 235 237 247 251 244 245 249 243 250 249 251 246 251 263 252 250 252 226 215 244 264 264 264 264 269 271 268 269 267 269 284 297 295 290 297 300 307 318 321 314 313 316 315 311 313 313 310 301 291 306 297 300 299 269 275 285 307 325 323 326 326 346 345 44 319 56 84 81 92 92 110 132 136 125 141 259 281 267 299
232 248 247 242 243 239 241 238 235 248 253 252 258 254 254 256 253 250 252 250 263 255 250 247 251 256 253 251 258 257 263 267 266 266 261 270 277 270 260 274 277 278 286 299 299 305 311 315 318 317 319 330 330 317 304 297 297 288 290 282 273 277 266 258 252 261 282 297 313 337 351 5 358 96 119 150 170 313 301 204 223 262 277 291 295
206 244 246 241 241 238 237 238 239 247 253 252 248 259 260 258 256 253 259 255 240 252 260 266 251 249 253 253 254 259 255 254 260 263 263 259 267 276 281 272 265 259 256 258 269 284 300 307 319 323 330 325 336 330 322 313 302 298 285 280 277 274 275 274 272 269 261 262 286 273 294 301 212 284 247 230 231 227 256 290 283 280 275 291 301
204 232 240 238 235 234 236 239 238 235 232 232 237 239 240 246 252 254 246 236 247 276 275 264 256 259 244 249 257 262 269 264 257 255 264 264 263 264 274 277 273 268 262 259 266 280 287 302 300 307 300 316 328 331 336 330 316 310 303 289 284 280 279 278 279 275 273 278 269 272 270 259 265 254 232 251 244 266 289 277 284 291 292 281 283
208 220 239 239 238 239 240 241 238 236 234 237 241 242 244 245 245 244 248 255 244 241 246 258 259 266 275 270 264 260 253 248 231 223 228 246 251 262 268 272 271 272 273 273 270 277 285 284 269 200 262 273 244 244 289 346 328 308 306 300 292 289 290 290 283 283 283 278 277 274 265 263 262 260 261 264 257 261 250 255 259 268 269 274 282
227 232 240 237 240 239 242 246 247 244 242 241 242 245 247 246 247 247 248 246 243 241 240 244 241 247 251 252 251 253 251 244 233 237 234 235 249 252 263 266 269 271 272 273 268 263 274 280 289 296 276 267 265 254 251 254 287 289 286 287 295 295 298 294 293 291 289 287 282 274 275 273 272 270 268 256 256 260 260 256 259 263 268 268 270
226 240 240 240 240 243 244 245 249 252 251 247 244 246 247 248 245 247 248 246 246 246 245 242 244 246 250 251 248 248 249 241 244 244 244 241 242 251 255 263 265 265 266 264 266 258 257 259 260 267 265 267 271 269 263 256 272 269 266 279 284 287 292 295 294 290 295 295 288 289 285 287 284 278 271 268 263 258 261 260 264 264 262 265 273
237 239 241 239 239 243 246 247 246 249 251 251 250 248 247 246 245 246 247 248 248 248 248 248 247 249 253 254 251 246 244 235 238 245 246 245 243 248 255 256 259 260 262 262 261 260 262 263 264 262 261 254 261 265 267 267 263 271 277 278 284 294 302 307 311 309 301 299 296 292 294 289 286 287 287 278 277 274 271 266 267 264 267 266 269
248 248 248 246 244 243 245 247 248 250 253 253 251 251 250 249 248 245 245 246 248 249 249 250 248 249 254 255 254 250 246 234 234 239 243 245 245 251 255 256 257 257 262 263 262 262 263 266 268 267 266 264 264 261 264 266 267 270 271 273 278 279 283 297 307 317 303 292 290 293 288 287 289 288 289 291 283 278 274 274 274 268 266 270 270
243 248 253 254 252 249 248 250 250 248 249 251 251 252 253 252 249 247 246 247 249 250 252 253 251 250 254 253 251 248 244 233 234 236 239 242 244 253 257 257 258 260 263 263 263 262 262 265 267 269 269 267 264 261 262 263 266 268 270 272 273 276 278 276 276 274 278 286 292 293 290 289 294 293 289 283 281 283 282 281 279 278 275 274 273
239 243 247 247 248 251 252 253 253 252 250 250 251 253 254 253 252 250 251 251 250 252 252 252 252 250 250 250 249 247 244 235 233 232 232 235 241 253 253 254 255 261 260 260 260 261 261 263 268 268 269 268 260 254 258 265 267 266 268 270 272 273 274 276 274 271 269 274 278 278 280 272 263 263 269 275 275 278 278 278 277 271 267 268 268
239 244 244 244 244 246 247 250 251 252 253 253 250 250 252 253 253 253 253 253 255 254 254 254 255 255 254 255 254 250 248 242 239 237 236 235 244 252 253 254 259 260 260 260 261 261 261 261 263 265 265 264 258 256 255 260 269 269 269 269 268 270 270 269 267 260 257 260 262 262 260 268 266 262 267 272 274 276 275 272 269 268 267 265 268
252 250 244 243 245 246 245 242 243 249 254 256 255 253 252 250 251 253 255 255 254 253 254 254 254 255 256 256 256 255 253 248 243 241 242 241 248 253 255 260 261 263 264 263 262 260 260 261 262 262 262 262 256 256 253 261 268 269 270 271 272 270 267 262 265 264 259 259 260 266 273 274 275 282 281 267 267 270 271 270 270 271 269 272 272
256 260 257 253 249 247 247 247 245 243 248 252 252 253 251 251 252 251 250 251 253 254 253 252 254 258 260 259 258 256 253 249 244 245 246 247 253 256 257 260 263 263 267 267 266 264 261 259 259 260 262 261 260 260 258 261 268 269 271 273 272 271 268 264 264 263 264 264 266 268 268 267 272 275 277 274 273 271 271 272 272 273 276 274 272
256 258 260 258 256 257 259 255 247 250 255 254 252 251 250 250 251 251 247 248 254 255 254 251 251 256 259 258 257 256 256 252 250 247 250 251 253 262 262 263 265 268 270 269 267 265 263 262 260 259 259 258 258 260 263 266 270 272 272 272 271 270 267 266 266 265 266 270 274 275 273 273 270 273 274 269 270 273 275 278 279 277 277 277 277
265 266 266 264 263 263 261 259 260 261 264 265 261 255 249 247 248 250 249 249 253 255 255 252 247 247 252 255 257 256 258 258 255 251 253 256 256 260 263 262 263 265 267 267 264 261 259 261 265 263 259 258 257 257 261 266 271 273 274 275 276 275 271 267 263 259 268 270 271 271 268 269 269 268 268 269 270 272 272 273 272 272 273 275 274
271 272 273 nan 271 271 269 267 269 271 271 270 267 263 257 249 249 253 254 253 253 255 256 255 250 nan nan 255 258 259 260 260 258 255 255 257 258 258 261 258 257 264 264 264 265 264 261 260 264 264 259 258 258 258 258 260 263 273 276 277 nan nan nan 270 269 268 267 nan nan nan nan nan nan nan nan nan nan nan nan nan nan nan 270 270 nan
272 272 273 nan nan 277 275 275 276 277 277 276 276 nan 273 271 268 266 263 259 256 256 257 nan nan nan 252 254 256 259 259 261 261 261 259 259 259 258 256 256 254 262 264 261 260 260 260 261 262 258 257 259 262 263 263 261 265 274 nan nan nan nan nan 276 nan nan nan nan nan nan nan nan nan nan nan nan nan nan nan nan nan nan nan nan nan
268 269 nan nan nan nan nan nan nan nan nan nan nan nan 275 nan nan nan nan nan nan nan nan nan nan nan nan nan nan nan nan nan nan nan 261 259 257 255 255 256 256 260 261 260 259 259 nan nan nan nan nan nan nan nan nan nan nan nan nan nan nan nan nan nan nan nan nan nan nan nan nan nan nan nan nan nan nan nan nan nan nan nan nan nan nan
nan nan nan nan nan nan nan nan nan nan nan nan nan nan nan nan nan nan nan nan nan nan nan nan nan nan nan nan nan nan nan nan nan nan nan nan nan nan nan nan nan nan nan nan nan nan nan nan nan nan nan nan nan nan nan nan nan nan nan nan nan nan nan nan nan nan nan nan nan nan nan nan nan nan nan nan nan nan nan nan nan nan nan nan nan
nan nan nan nan nan nan nan nan nan nan nan nan nan nan nan nan nan nan nan nan nan nan nan nan nan nan nan nan nan nan nan nan nan nan nan nan nan nan nan nan nan nan nan nan nan nan nan nan nan nan nan nan nan nan nan nan nan nan nan nan nan nan nan nan nan nan nan nan nan nan nan nan nan nan nan nan nan nan nan nan nan nan nan nan nan
nan nan nan nan nan nan nan nan nan nan nan nan nan nan nan nan nan nan nan nan nan nan nan nan nan nan nan nan nan nan nan nan nan nan nan nan nan nan nan nan nan nan nan nan nan nan nan nan nan nan nan nan nan nan nan nan nan nan nan nan nan nan nan nan nan nan nan nan nan nan nan nan nan nan nan nan nan nan nan nan nan nan nan nan nan
nan nan nan nan nan nan nan nan nan nan nan nan nan nan nan nan nan nan nan nan nan nan nan nan nan nan nan nan nan nan nan nan nan nan nan nan nan nan nan nan nan nan nan nan nan nan nan nan nan nan nan nan nan nan nan nan nan nan nan nan nan nan nan nan nan nan nan nan nan nan nan nan nan nan nan nan nan nan nan nan nan nan nan nan nan
nan nan nan nan nan nan nan nan nan nan nan nan nan nan nan nan nan nan nan nan nan nan nan nan nan nan nan nan nan nan nan nan nan nan nan nan nan nan nan nan nan nan nan nan nan nan nan nan nan nan nan nan nan nan nan nan nan nan nan nan nan nan nan nan nan nan nan nan nan nan nan nan nan nan nan nan nan nan nan nan nan nan nan nan nan
nan nan nan nan nan nan nan nan nan nan nan nan nan nan nan nan nan nan nan nan nan nan nan nan nan nan nan nan nan nan nan nan nan nan nan nan nan nan nan nan nan nan nan nan nan nan nan nan nan nan nan nan nan nan nan nan nan nan nan nan nan nan nan nan nan nan nan nan nan nan nan nan nan nan nan nan nan nan nan nan nan nan nan nan nan
nan nan nan nan nan nan nan nan nan nan nan nan nan nan nan nan nan nan nan nan nan nan nan nan nan nan nan nan nan nan nan nan nan nan nan nan nan nan nan nan nan nan nan nan nan nan nan nan nan nan nan nan nan nan nan nan nan nan nan nan nan nan nan nan nan nan nan nan nan nan nan nan nan nan nan nan nan nan nan nan nan nan nan nan nan
nan nan nan nan nan nan nan nan nan nan nan nan nan nan nan nan nan nan nan nan nan nan nan nan nan nan nan nan nan nan nan nan nan nan nan nan nan nan nan nan nan nan nan nan nan nan nan nan nan nan nan nan nan nan nan nan nan nan nan nan nan nan nan nan nan nan nan nan nan nan nan nan nan nan nan nan nan nan nan nan nan nan nan nan nan
nan nan nan nan nan nan nan nan 260 nan nan nan nan nan nan nan nan nan nan nan nan nan nan nan nan nan nan nan nan nan nan nan nan nan nan nan nan nan nan nan nan nan nan nan nan nan nan nan nan nan nan nan nan nan nan nan nan nan nan nan nan nan nan nan nan nan nan nan nan nan nan nan nan nan nan nan nan nan nan nan nan nan nan nan nan
nan nan nan nan nan nan nan nan nan nan nan nan nan nan nan nan nan nan nan nan nan nan nan nan nan nan nan nan nan nan nan nan nan nan nan nan nan nan nan nan nan nan nan nan nan nan nan nan nan nan nan nan nan nan nan nan nan nan nan nan nan nan nan nan nan nan nan nan nan nan nan nan nan nan nan nan nan nan nan nan nan nan nan nan nan
nan nan nan nan nan nan nan nan nan nan nan nan nan nan 263 nan nan nan nan nan nan nan nan nan nan nan nan nan nan nan nan nan nan nan nan nan nan nan nan nan nan nan nan nan nan nan nan nan nan nan nan nan nan nan nan nan nan nan nan nan nan nan nan nan nan nan nan nan nan nan nan nan nan nan nan nan nan nan nan nan nan nan nan nan nan
nan nan nan nan nan nan nan nan nan nan nan nan nan nan nan nan nan nan nan nan nan nan nan nan nan nan nan nan nan nan nan nan nan nan nan nan nan nan nan nan nan nan nan nan nan nan nan nan nan nan nan nan nan nan nan nan nan nan nan nan nan nan nan nan nan nan nan nan nan nan nan nan nan nan nan nan nan nan nan nan nan nan nan nan nan
nan nan nan nan 256 nan nan nan nan nan nan nan nan nan nan nan nan nan nan nan nan nan nan nan nan nan nan nan nan nan nan nan nan nan nan nan nan nan nan nan nan nan nan nan nan nan nan nan nan nan nan nan nan nan nan nan nan nan nan nan nan nan nan nan nan nan nan nan nan nan nan nan nan nan nan nan nan nan nan nan nan nan nan nan nan
nan nan nan nan nan nan nan nan nan nan nan nan nan nan nan nan nan nan nan nan nan nan nan nan nan nan nan nan nan nan nan nan nan nan nan nan nan nan nan nan nan nan nan nan nan nan nan nan nan nan nan nan nan nan nan nan nan nan nan nan nan nan nan nan nan nan nan nan nan nan nan nan nan nan nan nan nan nan nan nan nan nan nan nan nan
nan nan nan nan nan nan nan nan nan nan nan nan nan nan nan nan nan nan nan nan nan nan nan nan nan nan nan nan nan nan nan nan nan nan nan nan nan nan nan nan nan nan nan nan nan nan nan nan nan nan nan nan nan nan nan nan nan nan nan nan nan nan nan nan nan nan nan nan nan nan nan nan nan nan nan nan nan nan nan nan nan nan nan nan nan
nan nan nan nan nan nan nan nan nan nan nan nan nan nan nan nan nan nan nan nan nan nan nan nan nan nan nan nan nan nan nan nan nan nan nan nan nan nan nan nan nan nan nan nan nan nan nan nan nan nan nan nan nan nan nan nan nan nan nan nan nan nan nan nan nan nan nan nan nan nan nan nan nan nan nan nan nan nan nan nan nan nan nan nan nan
nan nan nan nan nan nan nan nan nan nan nan nan nan nan nan nan nan nan nan nan nan nan nan nan nan nan nan nan nan nan nan nan nan nan nan nan nan nan nan nan nan nan nan nan nan nan nan nan nan nan nan nan nan nan nan nan nan nan nan nan nan nan nan nan nan nan nan nan nan nan nan nan nan nan nan nan nan nan nan nan nan nan nan nan nan
nan nan nan nan nan nan nan nan nan nan nan nan nan nan nan nan nan nan nan nan nan nan nan nan nan nan nan nan nan nan nan nan nan nan nan nan nan nan nan nan nan nan nan nan nan nan nan nan nan nan nan nan nan nan nan nan nan nan nan nan nan nan nan nan nan nan nan nan nan nan nan nan nan nan nan nan nan nan nan nan nan nan nan nan nan
nan nan nan nan nan nan nan nan nan nan nan nan nan nan nan nan nan nan nan nan nan nan nan nan nan nan nan nan nan nan nan nan nan nan nan nan nan nan nan nan nan nan nan nan nan nan nan nan nan nan nan nan nan nan nan nan nan nan nan nan nan nan nan nan nan nan nan nan nan nan nan nan nan nan nan nan nan nan nan nan nan nan nan nan nan
nan nan nan nan nan nan nan nan nan nan nan nan nan nan nan nan nan nan nan nan nan nan nan nan nan nan nan nan nan nan nan nan nan nan nan nan nan nan nan nan nan nan nan nan nan nan nan nan nan nan nan nan nan nan nan nan nan nan nan nan nan nan nan nan nan nan nan nan nan nan nan nan nan nan nan nan nan nan nan nan nan nan nan nan nan
nan nan nan nan nan nan nan nan nan nan nan nan nan nan nan nan nan nan nan nan nan nan nan nan nan nan nan nan nan nan nan nan nan nan nan nan nan nan nan nan nan nan nan nan nan nan nan nan nan nan nan nan nan nan nan nan nan nan nan nan nan nan nan nan nan nan nan nan nan nan nan nan nan nan nan nan nan nan nan nan nan nan nan nan nan
nan nan nan nan nan nan nan nan nan nan nan nan nan nan nan nan nan nan nan nan nan nan nan nan nan nan nan nan nan nan nan nan nan nan nan nan nan nan nan nan nan nan nan nan nan nan nan nan nan nan nan nan nan nan nan nan nan nan nan nan nan nan nan nan nan nan nan nan nan nan nan nan nan nan nan nan nan nan nan nan nan nan nan nan nan
nan nan nan nan nan nan nan nan nan nan nan nan nan nan nan nan nan nan nan nan nan nan nan nan nan nan nan nan nan nan nan nan nan nan nan nan nan nan nan nan nan nan nan nan nan nan nan nan nan nan nan nan nan nan nan nan nan nan nan nan nan nan nan nan nan nan nan nan nan nan nan nan nan nan nan nan nan nan nan nan nan nan nan nan nan
nan nan nan nan nan nan nan nan nan nan nan nan nan nan nan nan nan nan nan nan nan nan nan nan nan nan nan nan nan nan nan nan nan nan nan nan nan nan nan nan nan nan nan nan nan nan nan nan nan nan nan nan nan nan nan nan nan nan nan nan nan nan nan nan nan nan nan nan nan nan nan nan nan nan nan nan nan nan nan nan nan nan nan nan nan
nan nan nan nan nan nan nan nan nan nan nan nan nan nan nan nan nan nan nan nan nan nan nan nan nan nan nan nan nan nan nan nan nan nan nan nan nan nan nan nan nan nan nan nan nan nan nan nan nan nan nan nan nan nan nan nan nan nan nan nan nan nan nan nan nan nan nan nan nan nan nan nan nan nan nan nan nan nan nan nan nan nan nan nan nan
nan nan nan nan nan nan nan nan nan nan nan nan nan nan nan nan nan nan nan nan nan nan nan nan nan nan nan nan nan nan nan nan nan nan nan nan nan nan nan nan nan nan nan nan nan nan nan nan nan nan nan nan nan nan nan nan nan nan nan nan nan nan nan nan nan nan nan nan nan nan nan nan nan nan nan nan nan nan nan nan nan nan nan nan nan
nan nan nan nan nan nan nan nan nan nan nan nan nan nan nan nan nan nan nan nan nan nan nan nan nan nan nan nan nan nan nan nan nan nan nan nan nan nan nan nan nan nan nan nan nan nan nan nan nan nan nan nan nan nan nan nan nan nan nan nan nan nan nan nan nan nan nan nan nan nan nan nan nan nan nan nan nan nan nan nan nan nan nan nan nan